WAT3069 LZIB-EFHK

Flight info

Callsign WAT3069
Flight time N/A
Altitude 35000
Route NIT R23 NIDOK/N0460F350 DCT MEBAN DCT BOKSU DCT GUNTA DCT SOKVA DCT KEMET Q11 INTOR
Aircraft B738/M-SDE2E3FGHIRWXY/LB1

Departure

Time N/A
Airport M. R. Štefánik Airport (LZIB)

Arrival

Time 2026-04-25 10:01
Airport Helsinki Vantaa Airport (EFHK)
Time Latitude Longitude Altitude Speed Heading
2026-04-25 09:30 57.79742 24.26321 34558 ft 466 kts
2026-04-25 09:31 57.82912 24.27603 34549 ft 466 kts
2026-04-25 09:31 57.89258 24.30171 34555 ft 467 kts
2026-04-25 09:32 57.95615 24.32734 34545 ft 467 kts
2026-04-25 09:32 58.01978 24.35299 34544 ft 468 kts
2026-04-25 09:33 58.08348 24.37873 34541 ft 468 kts
2026-04-25 09:33 58.14725 24.40458 34545 ft 470 kts
2026-04-25 09:34 58.21128 24.43064 34536 ft 471 kts
2026-04-25 09:34 58.27533 24.45683 34533 ft 471 kts
2026-04-25 09:35 58.33896 24.48295 34527 ft 471 kts
2026-04-25 09:35 58.40297 24.50931 34557 ft 471 kts
2026-04-25 09:36 58.46713 24.53581 34538 ft 472 kts
2026-04-25 09:36 58.53131 24.56243 34527 ft 472 kts
2026-04-25 09:37 58.59552 24.58918 34522 ft 472 kts
2026-04-25 09:37 58.65975 24.61603 34516 ft 472 kts
2026-04-25 09:38 58.72402 24.64299 34527 ft 473 kts
2026-04-25 09:38 58.78839 24.67012 34497 ft 474 kts
2026-04-25 09:38 58.82068 24.68373 34220 ft 479 kts
2026-04-25 09:39 58.85335 24.69750 33634 ft 479 kts
2026-04-25 09:39 58.88586 24.71129 32895 ft 478 kts
2026-04-25 09:39 58.91833 24.72510 32143 ft 478 kts
2026-04-25 09:40 58.98329 24.75278 30685 ft 478 kts
2026-04-25 09:40 59.01591 24.76533 29922 ft 478 kts
2026-04-25 09:40 59.04869 24.77637 29028 ft 479 kts
2026-04-25 09:40 59.08118 24.78673 28058 ft 480 kts
2026-04-25 09:41 59.11413 24.79717 27088 ft 481 kts
2026-04-25 09:41 59.14716 24.80781 26131 ft 481 kts
2026-04-25 09:41 59.18022 24.81870 25156 ft 482 kts
2026-04-25 09:41 59.21296 24.82973 24754 ft 471 kts
2026-04-25 09:42 59.24504 24.84075 24603 ft 453 kts
2026-04-25 09:42 59.27558 24.85132 24463 ft 438 kts
2026-04-25 09:42 59.30504 24.86151 24445 ft 422 kts
2026-04-25 09:42 59.33341 24.87132 24425 ft 407 kts
2026-04-25 09:43 59.36043 24.88065 24420 ft 392 kts
2026-04-25 09:43 59.38700 24.88983 24415 ft 372 kts
2026-04-25 09:43 59.41149 24.89834 24415 ft 352 kts
2026-04-25 09:43 59.43532 24.90660 24309 ft 336 kts
2026-04-25 09:44 59.45769 24.91431 24040 ft 327 kts
2026-04-25 09:44 59.47990 24.92190 23654 ft 323 kts
2026-04-25 09:44 59.50206 24.92944 23219 ft 323 kts
2026-04-25 09:44 59.52424 24.93700 22696 ft 325 kts
2026-04-25 09:45 59.54658 24.94464 22110 ft 328 kts
2026-04-25 09:45 59.56924 24.95241 21456 ft 333 kts
2026-04-25 09:45 59.59226 24.96034 20732 ft 339 kts
2026-04-25 09:45 59.60779 24.96569 20051 ft 348 kts
2026-04-25 09:46 59.63235 24.97410 18821 ft 368 kts
2026-04-25 09:46 59.65812 24.98298 17605 ft 384 kts
2026-04-25 09:46 59.68489 24.99229 16300 ft 397 kts
2026-04-25 09:46 59.71244 25.00197 15031 ft 404 kts
2026-04-25 09:47 59.74011 25.01180 13830 ft 404 kts
2026-04-25 09:47 59.76776 25.02165 12756 ft 402 kts
2026-04-25 09:47 59.79488 25.03137 12158 ft 387 kts
2026-04-25 09:47 59.82059 25.04063 11944 ft 363 kts
2026-04-25 09:48 59.84480 25.04933 11647 ft 346 kts
2026-04-25 09:48 59.86819 25.05765 11211 ft 336 kts
2026-04-25 09:48 59.89063 25.06562 10968 ft 320 kts
2026-04-25 09:48 59.91215 25.07327 10680 ft 308 kts
2026-04-25 09:49 59.93285 25.08061 10417 ft 297 kts
2026-04-25 09:49 59.95296 25.08774 10098 ft 289 kts
2026-04-25 09:49 59.97257 25.09469 9720 ft 285 kts
2026-04-25 09:49 59.99204 25.10158 9276 ft 283 kts
2026-04-25 09:50 60.01131 25.10841 8836 ft 279 kts
2026-04-25 09:50 60.03007 25.11513 8685 ft 271 kts
2026-04-25 09:50 60.04857 25.12173 8425 ft 268 kts
2026-04-25 09:50 60.06686 25.12827 8160 ft 266 kts
2026-04-25 09:51 60.08505 25.13477 7892 ft 265 kts
2026-04-25 09:51 60.10312 25.14125 7629 ft 263 kts
2026-04-25 09:51 60.12104 25.14768 7366 ft 261 kts
2026-04-25 09:51 60.13888 25.15410 7117 ft 260 kts
2026-04-25 09:52 60.15659 25.16047 6849 ft 258 kts
2026-04-25 09:52 60.17398 25.16674 6589 ft 257 kts
2026-04-25 09:52 60.19154 25.17308 6334 ft 256 kts
2026-04-25 09:52 60.20926 25.17948 6065 ft 255 kts
2026-04-25 09:53 60.22649 25.18571 5816 ft 255 kts
2026-04-25 09:53 60.24394 25.19202 5565 ft 254 kts
2026-04-25 09:53 60.26138 25.19834 5300 ft 255 kts
2026-04-25 09:53 60.27870 25.20464 5166 ft 250 kts
2026-04-25 09:54 60.29569 25.21083 5029 ft 245 kts
2026-04-25 09:54 60.31225 25.21686 4916 ft 238 kts
2026-04-25 09:54 60.32826 25.22274 4815 ft 230 kts
2026-04-25 09:54 60.34380 25.22841 4693 ft 226 kts
2026-04-25 09:55 60.35933 25.23404 4491 ft 226 kts
2026-04-25 09:55 60.37463 25.23964 4283 ft 220 kts
2026-04-25 09:55 60.38944 25.24508 4059 ft 212 kts
2026-04-25 09:55 60.40367 25.25031 3824 ft 204 kts
2026-04-25 09:56 60.41741 25.25507 3586 ft 195 kts 358°
2026-04-25 09:56 60.42948 25.24840 3379 ft 173 kts 312°
2026-04-25 09:56 60.43360 25.22718 3227 ft 167 kts 261°
2026-04-25 09:56 60.42811 25.20646 3160 ft 173 kts 237°
2026-04-25 09:57 60.42087 25.18678 3031 ft 173 kts 237°
2026-04-25 09:57 60.41374 25.16699 2711 ft 173 kts 238°
2026-04-25 09:57 60.40666 25.14775 2448 ft 169 kts 234°
2026-04-25 09:57 60.39929 25.13038 2230 ft 156 kts 232°
2026-04-25 09:58 60.39216 25.11448 2014 ft 151 kts 232°
2026-04-25 09:58 60.38522 25.09918 1802 ft 147 kts 231°
2026-04-25 09:58 60.37846 25.08431 1619 ft 142 kts 231°
2026-04-25 09:58 60.37187 25.06991 1450 ft 139 kts 230°
2026-04-25 09:59 60.36517 25.05519 1214 ft 143 kts 231°
2026-04-25 09:59 60.35853 25.04055 1020 ft 139 kts 230°
2026-04-25 09:59 60.35214 25.02635 807 ft 136 kts 231°
2026-04-25 09:59 60.34566 25.01225 648 ft 139 kts 231°
2026-04-25 10:00 60.33895 24.99728 455 ft 142 kts 228°
2026-04-25 10:00 60.33228 24.98285 259 ft 138 kts 231°
2026-04-25 10:00 60.32601 24.96874 174 ft 133 kts 225°
2026-04-25 10:00 60.32082 24.95725 172 ft 89 kts 227°
2026-04-25 10:01 60.31766 24.95037 172 ft 45 kts 228°
2026-04-25 10:01 60.31606 24.94677 164 ft 24 kts 228°
2026-04-25 10:01 60.31506 24.94569 162 ft 14 kts 178°
2026-04-25 10:01 60.31446 24.94634 163 ft 6 kts 136°
2026-04-25 10:02 60.31432 24.94661 163 ft 1 kts 136°
2026-04-25 10:02 60.31427 24.94670 163 ft 1 kts 136°
2026-04-25 10:02 60.31418 24.94691 162 ft 3 kts 129°
2026-04-25 10:02 60.31408 24.94735 163 ft 4 kts 114°
2026-04-25 10:03 60.31410 24.94800 164 ft 5 kts 71°
2026-04-25 10:03 60.31431 24.94862 165 ft 6 kts 47°
2026-04-25 10:03 60.31450 24.94940 167 ft 7 kts 73°
2026-04-25 10:03 60.31433 24.95009 166 ft 8 kts 134°
2026-04-25 10:04 60.31379 24.95134 166 ft 14 kts 112°
2026-04-25 10:04 60.31411 24.95265 166 ft 12 kts 48°
2026-04-25 10:04 60.31472 24.95398 166 ft 11 kts 47°
2026-04-25 10:04 60.31513 24.95521 166 ft 11 kts 98°
2026-04-25 10:05 60.31491 24.95561 166 ft 5 kts 138°
2026-04-25 10:05 60.31477 24.95587 166 ft 3 kts 137°
2026-04-25 10:05 60.31462 24.95615 166 ft 0 kts 137°
2026-04-25 10:05 60.31459 24.95620 166 ft 0 kts 137°